START_TIME,STEP,MOV.,AL01,t_acc.,AL02,t_acc.,E37,t_acc.,H21,t_acc.
1979-07-22 12:00:33.930 ,3,0,1.,24.0,0.,24.0,0.,24.0,0.,24.0
1979-07-22 12:00:57.930 ,2,1,0.,24.0,0.,24.0,0.,24.0,0.,24.0
1979-07-22 12:01:21.930 ,2,0,0.,24.0,0.,24.0,0.,24.0,0.,24.0
1979-07-22 12:01:45.930 ,1,1,0.,24.0,0.,24.0,2.,24.0,0.,24.0
1979-07-22 12:02:09.930 ,1,0,4.,24.0,1.,24.0,1.,24.0,0.,24.0
1979-07-22 12:02:33.930 ,0,1,5.,24.0,1.,24.0,1.,24.0,0.,24.0
1979-07-22 12:02:57.930 ,0,0,1.,24.0,0.,24.0,0.,24.0,0.,24.0
1979-07-22 12:03:21.930 ,0,1,2.,24.0,1.,24.0,0.,24.0,0.,24.0
1979-07-22 12:03:45.930 ,0,0,0.,24.0,1.,24.0,0.,24.0,0.,24.0
1979-07-22 12:04:09.930 ,1,1,1.,24.0,0.,24.0,0.,24.0,0.,24.0
1979-07-22 12:04:33.930 ,1,0,0.,24.0,0.,24.0,0.,24.0,0.,24.0
1979-07-22 12:04:57.930 ,2,1,1.,24.0,0.,24.0,0.,24.0,0.,24.0
1979-07-22 12:05:21.930 ,2,0,3.,24.0,0.,24.0,0.,24.0,0.,24.0
1979-07-22 12:05:45.930 ,3,1,0.,24.0,0.,24.0,0.,24.0,0.,24.0
1979-07-22 12:06:09.930 ,3,0,0.,24.0,0.,24.0,1.,24.0,0.,24.0
1979-07-22 12:06:33.930 ,4,1,0.,24.0,0.,24.0,1.,24.0,0.,24.0
1979-07-22 12:06:57.930 ,4,0,1.,24.0,0.,24.0,1.,24.0,0.,24.0
1979-07-22 12:06:57.930 ,4,0,1.,24.0,0.,24.0,1.,24.0,0.,24.0
1979-07-22 12:07:21.930 ,5,1,0.,24.0,0.,24.0,0.,24.0,0.,24.0
1979-07-22 12:07:45.930 ,5,0,1.,24.0,0.,24.0,1.,24.0,0.,24.0
1979-07-22 12:08:09.930 ,6,1,0.,24.0,0.,24.0,2.,24.0,0.,24.0
1979-07-22 12:08:33.930 ,6,0,0.,24.0,0.,24.0,0.,24.0,0.,24.0
1979-07-22 12:09:45.930 ,0,0,30.,24.0,0.,24.0,0.,24.0,0.,24.0
1979-07-22 12:10:09.930 ,0,0,32.,24.0,0.,24.0,1.,24.0,0.,24.0
1979-07-22 12:10:33.930 ,6,1,31.,24.0,0.,24.0,0.,24.0,0.,24.0
1979-07-22 12:10:57.930 ,6,0,1.,24.0,0.,24.0,1.,24.0,0.,24.0
1979-07-22 12:11:21.930 ,5,1,0.,24.0,0.,24.0,0.,24.0,0.,24.0
1979-07-22 12:11:45.930 ,5,0,0.,24.0,1.,24.0,0.,24.0,0.,24.0
1979-07-22 12:12:09.930 ,4,1,0.,24.0,0.,24.0,0.,24.0,0.,24.0
1979-07-22 12:12:33.930 ,4,0,0.,24.0,0.,24.0,0.,24.0,0.,24.0
1979-07-22 12:12:57.930 ,3,1,0.,24.0,0.,24.0,0.,24.0,0.,24.0
1979-07-22 12:13:21.930 ,3,0,0.,24.0,0.,24.0,0.,24.0,0.,24.0
1979-07-22 12:13:45.930 ,2,1,0.,24.0,0.,24.0,0.,24.0,0.,24.0
1979-07-22 12:14:09.930 ,2,0,0.,24.0,1.,24.0,0.,24.0,0.,24.0
1979-07-22 12:14:33.930 ,1,0,,0,,0,,0,,0
1979-07-22 12:14:57.930 ,1,0,0.,24.0,0.,24.0,1.,24.0,0.,24.0
1979-07-22 12:15:21.930 ,0,1,0.,24.0,0.,24.0,0.,24.0,0.,24.0
1979-07-22 12:15:45.930 ,0,0,0.,24.0,0.,24.0,0.,24.0,0.,24.0
1979-07-22 12:16:09.930 ,0,1,0.,24.0,0.,24.0,0.,24.0,0.,24.0
1979-07-22 12:16:33.930 ,0,0,0.,24.0,0.,24.0,1.,24.0,0.,24.0
1979-07-22 12:16:57.930 ,1,1,0.,24.0,0.,24.0,0.,24.0,0.,24.0
1979-07-22 12:17:21.930 ,1,0,0.,24.0,0.,24.0,1.,24.0,0.,24.0
1979-07-22 12:17:45.930 ,2,1,0.,24.0,0.,24.0,0.,24.0,0.,24.0
1979-07-22 12:18:09.930 ,2,0,0.,24.0,0.,24.0,0.,24.0,0.,24.0
1979-07-22 12:18:33.930 ,3,1,0.,24.0,0.,24.0,1.,24.0,0.,24.0
1979-07-22 12:18:57.930 ,3,0,0.,24.0,0.,24.0,0.,24.0,0.,24.0
1979-07-22 12:19:21.930 ,4,1,0.,24.0,0.,24.0,0.,24.0,0.,24.0
1979-07-22 12:19:45.930 ,4,0,0.,24.0,0.,24.0,0.,24.0,0.,24.0
1979-07-22 12:20:09.930 ,5,1,0.,24.0,1.,24.0,0.,24.0,0.,24.0
1979-07-22 12:20:33.930 ,5,0,0.,24.0,1.,24.0,1.,24.0,0.,24.0
1979-07-22 12:20:57.930 ,6,1,0.,24.0,0.,24.0,0.,24.0,0.,24.0
1979-07-22 12:21:21.930 ,6,0,0.,24.0,0.,24.0,0.,24.0,0.,24.0
1979-07-22 12:21:45.930 ,7,1,8.,24.0,0.,24.0,0.,24.0,0.,24.0
1979-07-22 12:22:09.930 ,7,0,29.,24.0,0.,24.0,1.,24.0,0.,24.0
1979-07-22 12:22:33.930 ,7,1,47.,24.0,0.,24.0,0.,24.0,0.,24.0
1979-07-22 12:22:57.930 ,7,0,35.,24.0,0.,24.0,0.,24.0,0.,24.0
1979-07-22 12:23:21.930 ,6,1,25.,24.0,0.,24.0,0.,24.0,0.,24.0
1979-07-22 12:23:45.930 ,6,0,0.,24.0,0.,24.0,0.,24.0,0.,24.0
1979-07-22 12:24:09.930 ,5,1,0.,24.0,0.,24.0,0.,24.0,0.,24.0
1979-07-22 12:24:33.930 ,5,0,0.,24.0,0.,24.0,0.,24.0,0.,24.0
1979-07-22 12:24:57.930 ,4,1,0.,24.0,0.,24.0,0.,24.0,0.,24.0
1979-07-22 12:25:21.930 ,4,0,0.,24.0,0.,24.0,0.,24.0,0.,24.0
1979-07-22 12:25:45.930 ,3,1,1.,24.0,0.,24.0,0.,24.0,0.,24.0
1979-07-22 12:26:09.930 ,3,0,1.,24.0,0.,24.0,1.,24.0,0.,24.0
1979-07-22 12:26:33.930 ,2,1,0.,24.0,0.,24.0,0.,24.0,0.,24.0
1979-07-22 12:26:57.930 ,2,0,1.,24.0,0.,24.0,0.,24.0,0.,24.0
1979-07-22 12:27:21.930 ,1,1,0.,24.0,0.,24.0,0.,24.0,0.,24.0
1979-07-22 12:27:45.930 ,1,0,0.,24.0,0.,24.0,0.,24.0,0.,24.0
1979-07-22 12:28:09.930 ,0,1,1.,24.0,0.,24.0,1.,24.0,0.,24.0
1979-07-22 12:28:33.930 ,0,0,0.,24.0,0.,24.0,1.,24.0,0.,24.0
1979-07-22 12:28:57.930 ,0,1,0.,24.0,0.,24.0,0.,24.0,0.,24.0
1979-07-22 12:29:21.930 ,0,0,0.,24.0,0.,24.0,0.,24.0,0.,24.0
1979-07-22 12:29:45.930 ,1,1,0.,24.0,0.,24.0,0.,24.0,0.,24.0
1979-07-22 12:30:09.930 ,1,0,0.,24.0,0.,24.0,1.,24.0,0.,24.0
1979-07-22 12:30:33.930 ,2,1,0.,24.0,0.,24.0,0.,24.0,0.,24.0
1979-07-22 12:30:57.930 ,2,0,0.,24.0,0.,24.0,0.,24.0,0.,24.0
1979-07-22 12:31:21.930 ,3,1,0.,24.0,0.,24.0,0.,24.0,0.,24.0
1979-07-22 12:31:45.930 ,3,0,0.,24.0,1.,24.0,0.,24.0,0.,24.0
1979-07-22 12:32:09.930 ,4,1,0.,24.0,0.,24.0,0.,24.0,0.,24.0
1979-07-22 12:32:33.930 ,4,0,0.,24.0,0.,24.0,0.,24.0,0.,24.0
1979-07-22 12:32:57.930 ,5,1,0.,24.0,0.,24.0,0.,24.0,0.,24.0
1979-07-22 12:33:21.930 ,5,0,0.,24.0,0.,24.0,1.,24.0,0.,24.0
1979-07-22 12:33:45.930 ,6,1,0.,24.0,0.,24.0,0.,24.0,0.,24.0
1979-07-22 12:34:09.930 ,6,0,0.,24.0,0.,24.0,0.,24.0,0.,24.0
1979-07-22 12:34:33.930 ,7,1,4.,24.0,0.,24.0,0.,24.0,0.,24.0
1979-07-22 12:34:57.930 ,7,0,29.,24.0,0.,24.0,0.,24.0,0.,24.0
1979-07-22 12:35:21.930 ,7,1,26.,24.0,1.,24.0,0.,24.0,0.,24.0
1979-07-22 12:35:45.930 ,7,0,38.,24.0,0.,24.0,0.,24.0,0.,24.0
1979-07-22 12:36:09.930 ,6,1,27.,24.0,0.,24.0,0.,24.0,0.,24.0
1979-07-22 12:36:33.930 ,6,0,1.,24.0,0.,24.0,2.,24.0,0.,24.0
1979-07-22 12:36:57.930 ,5,1,1.,24.0,0.,24.0,0.,24.0,0.,24.0
1979-07-22 12:37:21.930 ,5,0,0.,24.0,1.,24.0,1.,24.0,0.,24.0
1979-07-22 12:37:45.930 ,4,1,0.,24.0,0.,24.0,0.,24.0,0.,24.0
1979-07-22 12:38:09.930 ,4,0,0.,24.0,0.,24.0,0.,24.0,0.,24.0
1979-07-22 12:38:33.930 ,3,1,0.,24.0,0.,24.0,0.,24.0,0.,24.0
1979-07-22 12:38:57.930 ,3,0,0.,24.0,0.,24.0,0.,24.0,0.,24.0
1979-07-22 12:39:21.930 ,2,1,1.,24.0,0.,24.0,0.,24.0,0.,24.0
1979-07-22 12:39:45.930 ,2,0,0.,24.0,0.,24.0,0.,24.0,0.,24.0
1979-07-22 12:40:09.930 ,1,1,2.,24.0,0.,24.0,0.,24.0,0.,24.0
